Temperature
1 1 1 0 0 -0 -1 -0 -0 1 1 0 -0 -1 -1 -1 -2 -2 -2 -2 -3 -3 -3 -3 -3 -3 -4 -4 -4 -4 -4 -5 -5 -5 -5 -5 -5 -4 -4 -4 -4 -4 -4 -4
-1 0 0 -0 -0 -0 -1 -1 -1 -0 -1 -1 -1 -1 -2 -2 -3 -3 -3 -4 -4 -4 -4 -4 -4 -4 -4 -5 -5 -5 -5 -5 -5 -5 -5 -5 -5 -5 -5 -5 -5 -5 -5 -5
-1 -1 -1 -1 -1 -1 -2 -2 -2 -1 -2 -3 -3 -3 -3 -3 -4 -4 -4 -4 -4 -4 -5 -5 -5 -5 -5 -5 -5 -5 -6 -6 -6 -6 -6 -6 -6 -6 -6 -6 -6 -6 -6 -6
-1 -1 -1 -1 -1 -1 -2 -3 -3 -3 -3 -4 -4 -4 -4 -4 -4 -4 -4 -5 -5 -5 -5 -5 -5 -6 -6 -6 -6 -6 -6 -6 -6 -6 -6 -7 -6 -6 -6 -6 -6 -6 -6 -6
-2 -2 -1 -1 -2 -3 -3 -3 -4 -4 -4 -4 -4 -5 -5 -4 -5 -5 -5 -5 -5 -5 -6 -6 -6 -6 -7 -7 -7 -7 -7 -7 -7 -7 -7 -7 -7 -7 -7 -7 -7 -7 -7 -7
-2 -2 -2 -2 -4 -4 -4 -4 -4 -4 -5 -5 -6 -6 -6 -5 -6 -6 -6 -6 -6 -6 -6 -6 -7 -7 -7 -7 -7 -7 -7 -7 -7 -7 -8 -7 -7 -7 -7 -7 -7 -7 -7 -7
-3 -3 -3 -4 -5 -4 -4 -4 -5 -5 -5 -6 -6 -6 -6 -7 -7 -7 -7 -7 -7 -7 -7 -7 -7 -7 -8 -8 -8 -8 -8 -8 -8 -8 -8 -8 -8 -8 -8 -8 -8 -8 -8 -8
-4 -4 -4 -6 -6 -6 -6 -5 -6 -6 -6 -7 -7 -7 -7 -7 -7 -7 -7 -7 -7 -7 -7 -7 -8 -8 -8 -8 -8 -8 -8 -8 -8 -8 -8 -8 -8 -8 -8 -8 -8 -8 -8 -8
-5 -5 -5 -6 -6 -6 -6 -6 -6 -7 -7 -7 -8 -8 -8 -8 -8 -8 -8 -8 -8 -8 -8 -8 -8 -8 -9 -9 -9 -9 -9 -9 -9 -9 -9 -9 -9 -9 -9 -9 -9 -9 -9 -9
-6 -6 -6 -6 -6 -6 -7 -7 -7 -8 -8 -8 -8 -9 -9 -9 -9 -9 -9 -9 -8 -9 -9 -8 -8 -9 -9 -9 -9 -9 -9 -9 -9 -9 -9 -9 -9 -9 -9 -9 -9 -9 -9 -9
-7 -7 -7 -7 -7 -7 -8 -8 -8 -8 -9 -9 -9 -9 -9 -9 -9 -9 -9 -9 -9 -9 -9 -9 -9 -9 -9 -9 -10 -9 -9 -9 -9 -9 -9 -10 -10 -10 -9 -9 -9 -9 -9 -9
-7 -7 -8 -8 -8 -8 -8 -9 -9 -9 -9 -9 -9 -9 -9 -10 -10 -10 -10 -10 -10 -10 -10 -10 -10 -10 -10 -10 -10 -10 -10 -10 -10 -10 -10 -10 -10 -10 -10 -10 -9 -10 -10 -10
-8 -8 -8 -9 -9 -9 -9 -9 -10 -10 -10 -10 -10 -10 -10 -10 -10 -10 -10 -10 -10 -10 -10 -10 -10 -10 -10 -10 -10 -10 -10 -10 -10 -10 -10 -10 -10 -10 -10 -10 -10 -10 -10 -10
-9 -9 -10 -10 -10 -10 -10 -10 -10 -10 -10 -10 -10 -10 -10 -10 -10 -10 -11 -11 -11 -10 -10 -10 -10 -10 -10 -10 -11 -11 -10 -11 -11 -11 -11 -11 -11 -11 -11 -11 -11 -10 -10 -10
-10 -10 -10 -11 -11 -11 -11 -11 -11 -11 -11 -11 -11 -11 -11 -11 -11 -11 -11 -11 -11 -11 -11 -10 -10 -10 -11 -11 -11 -11 -11 -11 -11 -11 -11 -11 -11 -11 -11 -11 -11 -11 -11 -10
-11 -11 -11 -11 -12 -12 -12 -12 -12 -12 -12 -12 -12 -12 -12 -12 -12 -12 -11 -11 -11 -11 -11 -11 -11 -11 -11 -11 -11 -11 -11 -11 -11 -12 -12 -12 -12 -12 -12 -12 -12 -12 -11 -11
-12 -12 -12 -12 -12 -12 -12 -12 -12 -12 -12 -12 -12 -12 -12 -12 -12 -12 -12 -12 -12 -12 -12 -12 -12 -12 -12 -11 -12 -12 -12 -12 -12 -12 -12 -12 -12 -12 -12 -12 -12 -12 -12 -12
-12 -12 -12 -12 -13 -13 -13 -13 -13 -13 -13 -13 -13 -13 -13 -13 -13 -13 -13 -12 -12 -12 -12 -12 -12 -12 -12 -12 -12 -12 -12 -12 -12 -12 -13 -13 -13 -12 -13 -13 -13 -13 -12 -12
-13 -13 -13 -13 -13 -13 -13 -13 -13 -13 -13 -13 -13 -13 -13 -13 -13 -13 -13 -13 -13 -13 -12 -12 -12 -12 -12 -12 -13 -13 -13 -13 -13 -13 -13 -13 -13 -13 -13 -13 -13 -13 -13 -13
-13 -13 -13 -13 -13 -13 -14 -14 -14 -14 -14 -14 -14 -14 -14 -14 -14 -14 -13 -13 -13 -13 -13 -13 -13 -13 -13 -13 -13 -13 -13 -13 -13 -13 -13 -13 -13 -13 -13 -13 -13 -13 -13 -13
-13 -13 -13 -14 -14 -14 -14 -14 -14 -14 -14 -14 -14 -14 -14 -14 -14 -14 -14 -14 -14 -14 -13 -13 -13 -13 -13 -13 -13 -13 -13 -13 -14 -14 -14 -14 -14 -14 -14 -14 -14 -14 -14 -14
-14 -14 -14 -14 -14 -14 -14 -14 -14 -15 -14 -14 -15 -15 -15 -15 -15 -15 -15 -15 -14 -14 -14 -14 -13 -14 -14 -14 -13 -13 -13 -14 -14 -14 -14 -14 -14 -14 -14 -14 -14 -14 -14 -14
-14 -15 -15 -15 -15 -15 -15 -15 -15 -15 -15 -15 -15 -15 -15 -15 -15 -15 -15 -15 -15 -15 -14 -14 -14 -14 -14 -14 -14 -14 -14 -14 -14 -14 -14 -14 -14 -14 -14 -14 -15 -15 -14 -15
-15 -15 -15 -15 -15 -15 -15 -15 -15 -15 -15 -15 -16 -16 -16 -16 -16 -16 -16 -16 -15 -15 -15 -15 -14 -14 -14 -14 -14 -14 -14 -14 -14 -14 -15 -15 -15 -15 -15 -15 -15 -15 -15 -15
-15 -15 -15 -15 -15 -16 -16 -16 -16 -16 -16 -16 -16 -16 -16 -16 -16 -16 -16 -16 -16 -15 -15 -15 -15 -15 -15 -15 -15 -15 -15 -15 -15 -15 -15 -15 -15 -15 -15 -15 -15 -15 -15 -15
-15 -16 -16 -16 -16 -16 -16 -16 -16 -16 -16 -16 -16 -17 -17 -17 -17 -17 -16 -16 -16 -16 -16 -16 -16 -15 -15 -15 -15 -15 -15 -15 -15 -15 -15 -15 -15 -15 -15 -16 -16 -16 -15 -15
-16 -16 -16 -16 -16 -16 -17 -17 -17 -17 -17 -17 -17 -17 -17 -17 -17 -17 -17 -17 -17 -17 -17 -16 -16 -16 -16 -16 -16 -16 -16 -16 -16 -16 -16 -16 -16 -16 -16 -16 -16 -16 -16 -16
Wind_Speed
10 10 8 9 9 8 11 10 10 10 10 10 7 6 4 3 4 5 4 3 3 3 3 3 4 3 4 4 4 4 4 4 4 4 4 4 4 5 5 5 6 5 5 5
8 8 8 11 11 10 11 11 12 13 13 8 6 4 5 4 4 5 4 4 4 4 4 4 4 4 4 4 4 3 4 4 4 4 4 5 5 4 4 5 5 5 6 6
6 5 6 9 7 8 6 6 5 10 10 5 5 5 5 6 6 5 5 5 5 4 4 4 5 5 5 5 4 4 4 5 4 5 5 5 5 5 5 5 5 5 6 6
4 4 8 5 1 2 4 5 5 5 6 5 5 6 5 5 5 6 5 5 5 5 5 5 5 4 4 4 4 4 5 5 5 5 5 5 5 5 5 4 5 5 6 6
3 5 8 4 2 3 3 6 4 5 6 7 6 6 5 4 4 5 6 6 5 5 5 4 4 4 4 4 4 4 5 5 5 5 5 5 5 5 4 4 4 5 5 5
4 4 5 4 4 6 2 5 4 4 5 6 5 5 6 6 7 6 6 5 4 4 4 4 5 4 4 4 4 5 5 5 5 5 5 6 6 5 4 4 5 5 5 5
6 6 5 4 5 4 1 5 6 5 4 4 4 5 6 8 7 6 6 5 4 4 4 5 4 3 4 4 5 5 4 4 5 5 5 5 5 4 4 4 4 5 5 5
3 5 6 4 3 0 4 5 5 6 5 5 6 6 7 7 7 7 7 6 5 5 5 5 4 3 4 5 5 4 4 4 4 4 4 4 4 3 4 4 4 4 4 5
4 4 2 1 2 3 4 5 6 6 6 6 6 7 8 8 8 7 7 6 5 5 6 5 4 3 4 5 4 4 4 4 4 4 4 4 4 4 4 4 4 4 4 4
3 4 4 3 3 5 5 5 6 5 6 6 6 7 8 8 8 7 7 7 5 5 6 6 4 3 4 4 3 3 4 4 4 4 3 3 3 4 4 4 4 5 5 5
4 5 7 4 5 6 6 6 6 6 6 6 5 7 7 7 8 7 7 6 5 5 5 6 5 4 4 3 3 3 3 3 3 3 3 3 3 3 4 4 5 5 5 4
5 5 5 7 7 7 7 7 7 7 7 6 5 6 7 7 7 7 7 7 6 5 6 6 5 5 5 3 3 3 3 3 3 3 3 3 3 3 4 5 7 8 7 7
5 6 5 6 6 6 6 6 6 6 6 7 6 5 6 7 7 7 7 7 7 6 6 5 5 5 5 4 3 3 3 3 2 2 3 3 3 2 3 4 5 5 6 7
6 5 5 5 6 6 6 6 6 5 5 6 6 6 6 6 7 7 8 8 7 6 6 5 5 5 5 4 4 3 3 3 3 2 2 2 2 2 2 2 3 3 4 6
7 6 5 5 6 6 6 6 6 6 7 7 6 6 6 7 7 8 7 7 7 6 6 5 5 6 5 4 4 3 3 2 2 2 2 2 2 2 2 2 2 3 3 4
7 6 5 5 7 7 7 7 7 7 7 7 7 7 7 7 7 7 7 6 6 7 7 6 6 6 5 5 4 3 2 3 3 1 1 1 1 2 2 2 2 3 3 3
6 7 7 8 8 7 7 6 6 7 7 7 7 7 7 7 7 7 7 7 6 6 7 6 6 6 5 5 4 3 3 3 4 3 2 2 2 2 2 2 2 3 3 5
5 5 6 6 6 7 7 7 6 6 6 7 7 7 7 7 7 8 8 7 7 6 7 6 5 5 5 4 4 3 2 2 2 2 2 2 2 1 2 2 2 3 3 4
5 5 5 6 6 6 6 6 7 6 6 6 7 7 7 7 7 7 7 7 7 7 8 7 8 6 5 5 5 2 2 2 2 2 2 3 3 2 2 2 2 3 3 3
6 6 6 6 6 5 6 6 6 6 6 6 6 7 7 8 7 7 7 6 6 6 7 8 6 5 5 5 5 2 2 2 2 2 2 2 2 2 2 3 3 3 3 3
7 7 7 6 7 6 6 6 5 6 6 6 6 7 7 8 7 6 6 7 7 7 7 9 5 4 4 5 5 3 2 2 2 2 2 2 2 2 3 3 3 3 3 3
6 6 7 7 7 7 6 5 5 6 6 6 6 7 7 8 8 7 6 5 7 10 7 5 4 6 7 6 3 2 2 3 2 2 2 2 2 3 3 3 3 4 4 4
6 6 7 7 7 7 7 6 6 5 6 7 7 7 7 7 6 6 7 6 6 9 7 4 7 10 9 4 2 3 3 3 3 2 2 2 2 3 3 4 4 4 4 4
6 7 7 7 6 7 7 7 6 6 6 6 6 6 6 6 6 5 5 9 11 11 6 8 10 10 8 3 3 3 3 3 3 3 3 3 3 3 3 3 4 4 4 5
6 6 6 6 6 6 7 7 7 6 6 6 6 6 5 4 5 6 6 7 10 10 6 8 10 10 6 3 3 3 3 3 3 3 3 3 3 3 3 4 4 4 4 4
5 5 5 5 5 5 6 6 6 6 6 6 6 6 6 5 5 5 5 6 7 9 7 5 5 6 4 3 3 3 3 4 5 4 4 4 4 4 4 4 5 4 4 4
5 5 5 5 5 5 5 6 6 6 6 6 7 7 6 6 6 6 6 5 5 5 5 5 5 4 4 4 4 4 3 3 3 4 4 4 4 4 4 5 5 5 5 5
Wind_Direction
267 276 275 265 255 226 223 231 243 262 269 272 281 280 288 303 311 310 305 315 321 312 303 295 286 277 267 262 248 244 235 230 233 234 232 233 227 226 229 232 240 238 233 232
274 261 265 274 265 243 240 244 252 267 275 288 304 308 307 312 311 302 300 307 306 300 296 291 287 282 278 266 258 246 241 242 240 236 234 233 231 226 227 231 236 233 231 229
271 284 295 271 257 233 240 243 244 255 266 300 308 303 299 304 304 299 301 300 300 293 285 282 280 274 267 263 259 249 244 244 242 235 233 233 233 229 228 230 233 235 232 228
275 290 252 255 357 244 236 261 261 274 295 308 304 302 296 295 298 302 302 299 299 295 291 285 280 277 268 261 255 249 246 241 241 240 238 236 234 234 232 234 233 235 235 231
257 265 269 280 348 348 275 281 289 281 303 317 321 315 303 317 331 310 301 294 289 286 284 285 283 279 274 266 257 252 251 249 244 241 240 238 237 237 235 236 237 238 239 233
247 260 267 291 333 331 315 277 335 328 307 317 337 316 304 331 328 316 312 306 300 303 304 297 291 287 280 274 263 255 256 258 254 244 240 238 238 240 238 236 237 239 245 238
245 250 265 325 339 349 279 290 332 333 318 312 306 286 302 320 320 315 312 313 315 315 306 295 292 288 278 274 267 269 270 262 257 249 244 242 238 236 229 233 233 236 244 245
231 240 264 1 25 255 277 318 329 331 327 318 312 313 318 322 321 322 319 319 321 314 304 299 291 278 276 274 275 277 272 263 258 255 249 245 235 235 229 224 227 234 240 247
209 227 294 23 263 291 318 319 322 328 326 321 316 316 319 321 321 320 318 319 319 314 311 309 301 281 273 281 283 281 270 261 257 259 255 249 237 231 231 224 226 237 239 245
268 270 292 302 314 328 331 320 321 322 321 321 315 316 319 320 321 321 320 321 325 326 323 319 319 310 286 289 287 273 266 258 253 252 252 247 243 234 229 227 230 236 239 244
269 293 311 317 339 336 335 335 334 331 324 319 318 318 319 319 320 320 319 325 328 323 318 317 323 321 311 302 294 287 274 254 249 247 245 243 247 244 242 235 234 239 241 242
273 295 295 304 328 334 329 328 329 329 329 330 328 319 321 319 321 322 323 327 327 323 319 318 321 317 314 307 294 282 278 258 248 249 246 244 251 275 273 265 266 265 262 263
295 317 316 316 328 338 331 330 332 332 326 324 329 328 326 323 325 326 328 330 328 321 317 315 316 314 314 315 304 282 269 267 254 248 247 250 250 254 278 289 282 278 274 274
337 333 323 326 327 336 336 335 333 331 329 329 326 328 329 327 328 331 329 326 325 324 321 317 317 317 318 317 309 296 280 275 268 252 253 257 261 265 261 267 287 297 295 289
344 342 324 325 333 336 337 335 335 335 335 336 336 334 334 332 329 326 324 326 330 330 328 326 324 318 321 320 312 302 287 272 271 264 261 266 271 275 274 277 282 292 304 301
331 338 340 337 333 331 334 335 335 333 334 335 335 334 333 329 325 324 328 333 333 328 326 325 323 324 332 333 329 326 317 310 314 291 274 273 272 276 283 287 291 291 289 293
338 333 333 330 326 324 327 327 325 324 328 329 328 329 332 332 332 332 332 333 326 319 320 319 321 329 334 335 334 330 332 325 322 323 305 291 284 282 285 287 294 299 297 295
328 321 320 318 319 320 323 327 328 327 325 322 325 331 333 331 326 324 325 328 328 327 326 325 327 330 332 332 329 327 331 326 319 311 314 310 304 299 299 296 296 302 310 308
339 334 331 328 325 322 323 325 326 327 327 328 329 327 324 323 321 320 323 327 328 327 327 328 329 337 331 328 330 331 332 331 329 326 325 317 326 326 317 311 307 308 310 313
340 338 336 335 336 331 327 324 324 327 328 329 327 326 326 325 324 324 324 319 312 310 314 321 327 327 325 325 332 337 331 326 321 323 328 326 322 321 323 319 316 313 312 315
337 336 336 335 333 333 328 324 325 326 327 328 324 319 317 318 321 322 322 318 319 321 324 326 333 329 327 330 337 344 335 331 327 319 317 318 320 319 319 319 318 315 315 318
332 332 331 329 330 329 328 328 325 323 325 326 323 321 321 322 323 318 310 303 313 323 329 324 324 325 331 337 347 339 336 335 331 327 322 322 319 317 317 318 315 313 313 315
327 327 327 327 325 323 325 328 326 325 324 322 320 320 318 316 317 315 317 320 321 324 330 321 326 331 335 348 349 338 332 330 326 322 318 316 311 308 308 308 308 308 311 315
328 329 329 329 329 331 330 329 329 326 320 316 315 314 314 316 316 312 309 319 326 325 327 327 332 336 342 357 347 339 332 326 322 320 319 316 312 310 309 309 310 312 312 312
330 329 333 335 337 333 330 331 330 329 328 327 326 325 322 314 310 315 319 321 324 328 328 329 335 339 349 348 342 336 332 322 318 322 322 321 316 314 312 310 308 310 310 309
330 329 326 326 328 329 333 335 333 332 333 331 331 332 331 328 320 318 319 322 324 331 335 331 332 336 343 340 336 333 330 325 327 328 324 317 314 312 309 308 306 306 306 304
333 335 336 337 338 340 339 337 334 333 333 328 325 329 332 333 336 338 336 336 336 338 338 340 344 347 343 339 336 334 331 328 324 319 315 312 310 306 303 301 302 302 302 301
Height
1465 1463 1463 1462 1462 1464 1465 1462 1461 1452 1448 1445 1446 1446 1445 1445 1444 1443 1441 1440 1439 1438 1437 1436 1435 1434 1433 1433 1432 1432 1432 1432 1432 1432 1433 1434 1434 1435 1436 1436 1437 1438 1439 1440
1466 1461 1461 1459 1456 1457 1457 1457 1454 1450 1447 1445 1444 1444 1443 1443 1442 1441 1439 1438 1437 1435 1434 1432 1431 1430 1429 1428 1428 1428 1427 1427 1427 1427 1428 1428 1428 1429 1430 1430 1431 1432 1433 1434
1465 1461 1460 1457 1452 1452 1453 1451 1451 1450 1447 1444 1444 1443 1442 1441 1440 1438 1436 1435 1433 1432 1430 1429 1427 1426 1424 1424 1423 1423 1423 1422 1422 1422 1422 1422 1423 1424 1424 1425 1426 1426 1427 1428
1466 1463 1463 1451 1448 1447 1448 1448 1448 1446 1445 1444 1443 1441 1440 1438 1437 1435 1433 1432 1430 1428 1426 1424 1423 1421 1420 1419 1419 1418 1418 1418 1418 1417 1417 1418 1418 1418 1419 1420 1420 1421 1422 1422
1467 1463 1453 1449 1449 1450 1450 1447 1446 1445 1443 1442 1440 1438 1436 1435 1434 1432 1430 1428 1426 1424 1421 1419 1418 1417 1416 1415 1414 1414 1413 1413 1413 1413 1413 1413 1413 1413 1414 1414 1415 1416 1417 1417
1466 1464 1457 1453 1452 1448 1449 1447 1445 1443 1442 1441 1439 1439 1434 1433 1431 1428 1426 1424 1422 1419 1417 1415 1414 1412 1411 1410 1409 1409 1408 1408 1408 1408 1408 1408 1408 1408 1409 1410 1410 1411 1412 1413
1467 1463 1456 1456 1452 1449 1454 1450 1446 1444 1442 1441 1439 1438 1434 1431 1428 1425 1423 1420 1417 1415 1412 1411 1409 1408 1406 1405 1404 1404 1404 1404 1404 1404 1403 1403 1403 1404 1404 1405 1406 1406 1407 1407
1466 1463 1460 1456 1454 1456 1454 1449 1446 1443 1441 1439 1436 1433 1431 1428 1425 1422 1419 1416 1413 1410 1408 1406 1405 1403 1402 1401 1400 1400 1400 1399 1399 1399 1399 1399 1399 1399 1400 1401 1401 1401 1401 1402
1463 1462 1457 1455 1454 1452 1450 1447 1444 1442 1439 1437 1434 1431 1428 1425 1422 1419 1416 1413 1410 1407 1404 1402 1401 1400 1398 1397 1397 1396 1395 1395 1395 1395 1395 1395 1395 1395 1395 1396 1396 1396 1397 1396
1459 1456 1454 1453 1451 1449 1447 1445 1442 1440 1438 1435 1432 1429 1426 1423 1420 1417 1413 1410 1407 1404 1401 1398 1397 1396 1394 1394 1393 1392 1391 1391 1391 1390 1391 1391 1391 1391 1391 1391 1391 1392 1392 1392
1458 1456 1453 1450 1450 1447 1444 1442 1440 1438 1435 1433 1430 1427 1424 1421 1418 1414 1411 1408 1405 1402 1399 1396 1394 1393 1391 1391 1390 1388 1388 1387 1387 1387 1387 1387 1387 1387 1387 1387 1387 1388 1387 1387
1458 1455 1454 1450 1447 1445 1442 1440 1437 1435 1432 1430 1428 1425 1422 1419 1416 1412 1409 1406 1403 1400 1397 1395 1392 1390 1389 1388 1387 1385 1384 1384 1384 1383 1383 1383 1383 1383 1383 1384 1384 1384 1384 1384
1456 1453 1451 1448 1445 1443 1440 1438 1435 1433 1430 1427 1425 1423 1420 1417 1414 1410 1407 1404 1401 1398 1395 1392 1390 1388 1387 1385 1384 1382 1382 1381 1380 1380 1380 1380 1379 1379 1379 1379 1380 1380 1379 1379
1453 1451 1447 1445 1443 1440 1438 1435 1433 1430 1428 1425 1423 1420 1418 1415 1412 1408 1405 1402 1399 1396 1393 1391 1388 1386 1385 1383 1381 1380 1379 1378 1378 1377 1377 1376 1376 1376 1376 1375 1375 1374 1375 1374
1450 1448 1446 1443 1440 1438 1435 1433 1430 1427 1425 1423 1420 1418 1415 1412 1409 1407 1404 1401 1397 1394 1391 1389 1386 1384 1383 1381 1379 1377 1377 1376 1376 1375 1374 1374 1374 1374 1373 1373 1372 1371 1370 1370
1448 1446 1443 1441 1438 1435 1433 1430 1428 1425 1423 1421 1418 1416 1413 1411 1408 1405 1402 1399 1396 1393 1390 1387 1385 1383 1381 1379 1377 1376 1375 1374 1374 1373 1372 1372 1371 1371 1371 1370 1369 1369 1368 1367
1446 1443 1440 1438 1435 1433 1431 1429 1427 1424 1421 1419 1416 1414 1411 1408 1406 1403 1400 1397 1395 1392 1389 1386 1384 1382 1380 1378 1376 1374 1373 1372 1371 1371 1370 1370 1369 1369 1368 1368 1367 1366 1365 1364
1447 1444 1441 1438 1435 1432 1429 1427 1425 1422 1420 1417 1414 1412 1409 1406 1404 1401 1398 1396 1393 1390 1388 1386 1383 1381 1379 1377 1375 1373 1372 1371 1370 1369 1368 1368 1367 1367 1366 1365 1364 1363 1362 1361
1444 1442 1439 1437 1434 1431 1428 1425 1423 1420 1418 1415 1413 1410 1407 1405 1402 1400 1397 1394 1391 1388 1386 1384 1382 1380 1378 1376 1374 1373 1371 1370 1369 1368 1367 1366 1365 1365 1364 1363 1362 1361 1360 1359
1442 1440 1437 1434 1432 1429 1426 1423 1421 1418 1416 1413 1411 1408 1405 1403 1401 1398 1395 1393 1390 1388 1385 1383 1381 1379 1377 1375 1374 1372 1371 1369 1368 1367 1366 1365 1364 1363 1362 1361 1360 1359 1358 1357
1440 1437 1435 1432 1429 1427 1424 1422 1419 1416 1414 1412 1409 1407 1404 1401 1399 1397 1394 1391 1389 1386 1384 1382 1380 1378 1376 1375 1373 1371 1370 1368 1367 1366 1365 1364 1363 1362 1361 1360 1359 1357 1356 1355
1438 1436 1433 1431 1427 1425 1422 1420 1418 1415 1412 1410 1408 1405 1402 1400 1397 1395 1393 1390 1387 1385 1382 1380 1378 1377 1375 1374 1372 1370 1369 1367 1366 1365 1364 1363 1362 1361 1360 1359 1357 1356 1354 1353
1437 1435 1432 1429 1426 1423 1420 1418 1416 1413 1411 1408 1406 1403 1401 1398 1396 1393 1390 1388 1386 1383 1381 1379 1377 1376 1374 1372 1370 1369 1368 1366 1365 1364 1363 1362 1361 1360 1358 1357 1355 1354 1352 1351
1436 1433 1430 1427 1425 1421 1419 1416 1414 1412 1409 1407 1405 1402 1399 1396 1394 1392 1389 1387 1384 1382 1379 1377 1376 1374 1372 1370 1369 1368 1366 1365 1364 1363 1361 1360 1359 1358 1357 1355 1354 1352 1350 1349
1434 1431 1429 1426 1423 1421 1418 1415 1412 1410 1407 1405 1403 1400 1398 1395 1392 1389 1387 1385 1382 1380 1377 1376 1374 1372 1370 1369 1368 1366 1365 1364 1363 1361 1360 1359 1357 1356 1355 1353 1352 1350 1348 1347
1432 1430 1428 1425 1423 1420 1418 1415 1412 1409 1406 1403 1401 1398 1396 1393 1390 1388 1385 1383 1380 1378 1376 1374 1372 1371 1369 1368 1366 1365 1364 1362 1361 1360 1359 1357 1356 1354 1353 1351 1350 1348 1346 1344
1431 1429 1426 1424 1421 1419 1417 1414 1411 1408 1406 1403 1400 1397 1394 1392 1389 1386 1383 1381 1379 1377 1375 1373 1371 1369 1368 1366 1365 1364 1362 1361 1360 1358 1357 1355 1354 1352 1351 1349 1348 1346 1344 1342